Location: Unspecified
(0.0000°N, 0.0000°E)
Time: 21:07:36
(UTC+00:00)

S-56A Canister/Altair - All Passes

Search period start: 27 July 2016 00:00
Search period end: 06 August 2016 00:00
Orbit: 641 x 2494 km, 38.9° (Epoch: 26 July)

Date Brightness Start Highest point End Pass type
(mag) Time Alt. Az. Time Alt. Az. Time Alt. Az.
27 Jul - 04:59:44 10° SSW 05:06:39 18° SSE 05:12:11 10° ESE visible
27 Jul - 07:03:45 10° SW 07:13:06 68° SE 07:19:12 10° ENE daylight
27 Jul - 09:12:33 10° W 09:16:44 17° NW 09:20:12 10° N daylight
27 Jul - 17:39:05 10° NNW 17:45:52 30° NE 17:55:13 10° ESE daylight
27 Jul - 19:41:21 10° WNW 19:50:44 73° SW 20:04:30 10° SE visible
27 Jul - 21:49:02 10° W 21:58:20 25° SSW 22:09:26 10° SSE visible
28 Jul - 04:26:50 10° S 04:33:36 17° SSE 04:39:10 10° ESE visible
28 Jul - 06:30:37 10° SW 06:40:33 58° SE 06:47:01 10° ENE daylight
28 Jul - 08:38:43 10° W 08:44:28 23° NW 08:48:53 10° N daylight
28 Jul - 17:07:31 10° N 17:13:20 23° NE 17:21:02 10° E daylight
28 Jul - 19:09:02 10° NW 19:17:50 82° SW 19:31:06 10° SE visible
28 Jul - 21:15:49 10° W 21:25:00 27° SSW 21:36:26 10° SSE visible
29 Jul - 03:53:56 10° S 04:00:27 15° SSE 04:05:58 10° ESE visible
29 Jul - 05:57:28 10° SW 06:07:54 51° SE 06:14:47 10° ENE daylight
29 Jul - 08:05:03 10° WSW 08:12:11 31° NW 08:17:20 10° NNE daylight
29 Jul - 16:36:13 10° N 16:40:51 18° NE 16:46:39 10° E daylight
29 Jul - 18:36:49 10° NW 18:45:03 87° NE 18:57:40 10° SE visible
29 Jul - 20:42:47 10° W 20:51:45 30° SSW 21:03:22 10° SSE visible
29 Jul - 23:00:27 10° SSW 23:01:46 10° SSW 23:03:07 10° SSW visible
30 Jul - 03:21:03 10° S 03:27:12 14° SSE 03:32:33 10° SE visible
30 Jul - 05:24:18 10° SSW 05:35:09 45° SE 05:42:27 10° ENE visible
30 Jul - 07:31:28 10° WSW 07:39:51 40° NW 07:45:38 10° NNE daylight
30 Jul - 16:05:28 10° NNE 16:08:24 13° NE 16:11:45 10° ENE daylight
30 Jul - 18:04:43 10° NW 18:12:21 76° NE 18:24:11 10° SE daylight
30 Jul - 20:09:56 10° W 20:18:36 33° SSW 20:30:15 10° SSE visible
30 Jul - 22:24:33 10° SW 22:28:07 11° SSW 22:31:52 10° S visible
31 Jul - 02:48:15 10° S 02:53:51 13° SSE 02:58:52 10° SE visible
31 Jul - 04:51:08 10° SSW 05:02:18 40° SE 05:10:01 10° ENE visible
31 Jul - 06:57:55 10° WSW 07:07:29 50° NW 07:13:51 10° NNE daylight
31 Jul - 17:32:43 10° NW 17:39:47 63° NE 17:50:40 10° ESE daylight
31 Jul - 19:37:14 10° W 19:45:32 37° SW 19:57:06 10° SSE visible
31 Jul - 21:49:57 10° SW 21:54:33 12° SSW 21:59:31 10° S visible
01 Aug - 02:15:35 10° S 02:20:23 12° SSE 02:24:50 10° SE visible
01 Aug - 04:17:57 10° SSW 04:29:21 36° SE 04:37:28 10° E visible
01 Aug - 06:24:23 10° WSW 06:35:01 62° NW 06:41:56 10° NE daylight
01 Aug - 17:00:47 10° NNW 17:07:17 52° NE 17:17:07 10° ESE daylight
01 Aug - 19:04:40 10° WNW 19:12:33 41° SW 19:23:56 10° SSE visible
01 Aug - 21:15:53 10° SW 21:21:05 13° SSW 21:26:52 10° S visible
02 Aug - 01:43:13 10° S 01:46:50 11° SSE 01:50:16 10° SE visible
02 Aug - 03:44:48 10° SSW 03:56:17 33° SSE 04:04:47 10° E visible
02 Aug - 05:50:53 10° SW 06:02:28 75° NW 06:09:56 10° NE daylight
02 Aug - 08:03:31 10° WNW 08:06:22 12° NW 08:08:54 10° NNW daylight
02 Aug - 16:28:57 10° NNW 16:34:54 41° NE 16:43:33 10° ESE daylight
02 Aug - 18:32:12 10° WNW 18:39:41 45° SW 18:50:45 10° SSE visible
02 Aug - 20:42:10 10° SW 20:47:42 15° SSW 20:54:03 10° S visible
03 Aug - 01:12:02 10° SSE 01:13:11 10° SSE 01:14:20 10° SSE visible
03 Aug - 03:11:41 10° SSW 03:23:09 30° SSE 03:31:58 10° E visible
03 Aug - 05:17:24 10° SW 05:29:47 87° NW 05:37:51 10° NE visible
03 Aug - 07:28:29 10° W 07:33:55 17° NW 07:38:19 10° N daylight
03 Aug - 15:57:15 10° NNW 16:02:33 32° NE 16:09:57 10° ESE daylight
03 Aug - 17:59:52 10° WNW 18:06:55 51° SW 18:17:34 10° SE daylight
03 Aug - 20:08:44 10° WSW 20:14:25 16° SSW 20:21:10 10° S visible
04 Aug - 02:38:37 10° SSW 02:49:55 27° SSE 02:58:58 10° E visible
04 Aug - 04:43:57 10° SW 04:57:02 83° SE 05:05:39 10° NE visible
04 Aug - 06:54:04 10° W 07:01:27 23° NW 07:07:04 10° N daylight
04 Aug - 15:25:41 10° N 15:30:16 24° NE 15:36:16 10° E daylight
04 Aug - 17:27:36 10° WNW 17:34:14 58° SW 17:44:23 10° SE daylight
04 Aug - 19:35:30 10° WSW 19:41:15 17° SSW 19:48:15 10° S visible
05 Aug - 02:05:36 10° SSW 02:16:37 25° SSE 02:25:47 10° E visible
05 Aug - 04:10:33 10° SW 04:24:09 73° SE 04:33:21 10° NE visible
05 Aug - 06:19:53 10° WSW 06:28:57 29° NW 06:35:31 10° NNE daylight
05 Aug - 14:54:20 10° N 14:58:00 18° NE 15:02:26 10° E daylight
05 Aug - 16:55:26 10° WNW 17:01:40 68° SW 17:11:14 10° SE daylight
05 Aug - 19:02:29 10° WSW 19:08:11 18° SSW 19:15:20 10° SSE visible
